Regional Weather Roundup
Issued by NWS

Home | Current Version | Previous Version | Graphics & Text | Print | Product List | Glossary Off
Versions: 1 2 3 4 5 6 7 8 9 10 11 12 13 14 15 16 17 18 19 20 21 22 23 24 25 26 27 28 29 30 31 32 33 34 35 36 37 38 39 40 41 42 43 44 45 46 47 48 49 50

000
ASUS43 KMKX 210000
RWRWI

WISCONSIN REGIONAL WEATHER ROUNDUP
NATIONAL WEATHER SERVICE MILWAUKEE/SULLIVAN WI
600 PM CST MON NOV 20 2017

NOTE: "FAIR" INDICATES FEW OR NO CLOUDS BELOW 12,000 FEET WITH NO
SIGNIFICANT WEATHER AND/OR OBSTRUCTIONS TO VISIBILITY.

WIZ001-002-006>008-014>016-023>028-210100-
NORTHWEST WISCONSIN

CITY           SKY/WX    TMP DP  RH WIND       PRES   REMARKS
SUPERIOR ARPT  PTCLDY    32  28  85 SW8       29.34F WCI  25
6HR MIN TEMP:  29; 6HR MAX TEMP:  36;

ASHLAND        CLOUDY    40  28  62 SW14      29.34S WCI  32
6HR MIN TEMP:  34; 6HR MAX TEMP:  43;

HAYWARD        CLOUDY    40  28  62 SW10      29.38F WCI  33
6HR MIN TEMP:  39; 6HR MAX TEMP:  42;

SIREN          CLEAR     40  29  64 SW8       29.41R WCI  34
CUMBERLAND     PTCLDY    37  30  75 SW9       29.41S WCI  31
RICE LAKE      PTCLDY    42  31  64 S6        29.44R
CHETEK         PTCLDY    44  32  62 SW7       29.43S
LADYSMITH      PTCLDY    41  31  67 S8        29.43F
EAU CLAIRE     NOT AVBL
MENOMONIE      CLOUDY    46  31  56 SW9       29.44R
6HR MIN TEMP:  45; 6HR MAX TEMP:  48;

NEW RICHMOND   CLOUDY    42  30  62 SW8       29.43S
OSCEOLA        PTCLDY    42  31  64 SW5       29.45S
$$

WIZ003>005-009-010-017-018-210100-
NORTH CENTRAL WISCONSIN

CITY           SKY/WX    TMP DP  RH WIND       PRES   REMARKS
MANITOWISH WTR CLOUDY    37  30  77 S10       29.39F WCI  30
ARBOR VITAE    CLOUDY    39  30  70 S10       29.40F WCI  32
WOODRUFF       CLOUDY    39  30  70 S10       29.40F WCI  32
RHINELANDER    CLOUDY    41  29  62 S10       29.41F
6HR MIN TEMP:  39; 6HR MAX TEMP:  44;

EAGLE RIVER    CLOUDY    37  27  68 S6        29.40F WCI  32
6HR MIN TEMP:  37; 6HR MAX TEMP:  42;

LAND O LAKES   CLOUDY    38  30  72 S6        29.41F WCI  33
PHILLIPS       CLEAR     39  29  68 S7        29.40F WCI  34
6HR MIN TEMP:  39; 6HR MAX TEMP:  44;

TOMAHAWK       CLOUDY    38  28  69 CALM      29.44F
MEDFORD        CLOUDY    40  30  65 S10       29.44F WCI  34
MERRILL        CLOUDY    42  30  61 S7        29.45F
6HR MIN TEMP:  39; 6HR MAX TEMP:  44;

$$

WIZ029-030-035-036-043>047-210100-
CENTRAL WISCONSIN

CITY           SKY/WX    TMP DP  RH WIND       PRES   REMARKS
WAUSAU         CLOUDY    43  29  57 S9        29.45F
6HR MIN TEMP:  40; 6HR MAX TEMP:  46;

MOSINEE        CLOUDY    43  30  61 S10       29.49F
MARSHFIELD     CLOUDY    45  29  53 S13       29.46F
6HR MIN TEMP:  43; 6HR MAX TEMP:  48;

STEVENS POINT  CLOUDY    44  29  57 SW9       29.51F
WAUPACA        CLOUDY    45  32  59 S7        29.53S
WAUTOMA        CLOUDY    46  30  53 S6        29.55S
6HR MIN TEMP:  45; 6HR MAX TEMP:  50;

WISC RAPIDS    CLOUDY    46  31  55 SW8       29.52F
6HR MIN TEMP:  46; 6HR MAX TEMP:  51;

CAMP DOUGLAS   NOT AVBL
$$

WIZ011>013-019>022-031-037>040-048>050-210100-
NORTHEAST WISCONSIN

CITY           SKY/WX    TMP DP  RH WIND       PRES   REMARKS
ANTIGO         CLOUDY    35  29  80 S9        29.47F WCI  27
SHAWANO        CLOUDY    45  32  61 S3        29.50F
6HR MIN TEMP:  42; 6HR MAX TEMP:  47;

OCONTO         PTCLDY    44  31  61 S10       29.52F
STURGEON BAY   CLOUDY    42  35  76 S12       29.53F
6HR MIN TEMP:  40; 6HR MAX TEMP:  43;

GREEN BAY      CLOUDY    44  34  67 S14       29.53F
6HR MIN TEMP:  40; 6HR MAX TEMP:  46;

MANITOWOC      CLOUDY    41  33  73 S7        29.57S
6HR MIN TEMP:  41; 6HR MAX TEMP:  47;

APPLETON       MOCLDY    45  30  57 SW15      29.52F
CLINTONVILLE   CLOUDY    43  30  61 S9        29.51F
OSHKOSH        CLOUDY    45  33  63 S15G22    29.55S
6HR MIN TEMP:  43; 6HR MAX TEMP:  48;

$$

WIZ032>034-041-042-053>061-210100-
SOUTHWEST WISCONSIN

CITY           SKY/WX    TMP DP  RH WIND       PRES   REMARKS
LA CROSSE      CLOUDY    50  33  52 S9        29.53S
6HR MIN TEMP:  47; 6HR MAX TEMP:  54;

SPARTA         CLOUDY    48  33  54 SW3       29.54S
VIROQUA        CLOUDY    46  33  59 S10       29.55S
6HR MIN TEMP:  46; 6HR MAX TEMP:  50;

BOSCOBEL       CLOUDY    54  30  40 SW12      29.59R
6HR MIN TEMP:  47; 6HR MAX TEMP:  55;

PRAIRIE DU CHI CLOUDY    55  27  34 S9        29.59R
PLATTEVILLE    CLOUDY    49  33  54 S15       29.62S
$$

WIZ056-057-062-063-064-067-068-210100-
SOUTH CENTRAL WISCONSIN

CITY           SKY/WX    TMP DP  RH WIND       PRES   REMARKS
REEDSBURG      CLOUDY    47  32  55 S12       29.56S
BARABOO/DELLS  CLOUDY    49  30  47 SW17G23   29.55F
LONE ROCK      NOT AVBL
MINERAL POINT  CLOUDY    50  32  50 S12G18    29.60S
MADISON        CLOUDY    50  33  52 S14G25    29.60S
6HR MIN TEMP:  45; 6HR MAX TEMP:  50;

MIDDLETON      CLOUDY    51  32  47 S15       29.60S
WATERTOWN      CLOUDY    49  33  54 S18G26    29.61R
MONROE         CLOUDY    48  32  53 S22       29.63S
JANESVILLE     MOCLDY    52  32  46 S16       29.65R
$$

WIZ051-052-058>065-066-070>072-210100-
SOUTHEAST WISCONSIN

CITY           SKY/WX    TMP DP  RH WIND       PRES   REMARKS
MILWAUKEE      CLOUDY    50  33  52 SW20G30   29.65R
6HR MIN TEMP:  48; 6HR MAX TEMP:  52;

WAUKESHA       CLEAR     46  30  53 S16G25    29.65R
MILWAUKEE/TIMM CLEAR     48  28  46 SW17G28   29.64R
RACINE         CLOUDY    49  33  54 SW17G29   29.67S
6HR MIN TEMP:  48; 6HR MAX TEMP:  52;

BURLINGTON     CLOUDY    49  39  67 S23G30    29.65R
KENOSHA        CLOUDY    50  33  52 SW23G33   29.67R
6HR MIN TEMP:  48; 6HR MAX TEMP:  52;

FOND DU LAC    CLOUDY    47  31  53 S16G25    29.56F
6HR MIN TEMP:  43; 6HR MAX TEMP:  48;

SHEBOYGAN      PTCLDY    46  34  62 S16       29.58S
6HR MIN TEMP:  43; 6HR MAX TEMP:  50;

WEST BEND      CLOUDY    46  32  57 SW14G20   29.60R
JUNEAU         CLOUDY    46  33  61 S15       29.61R
$$

LSZ147-162-210100-
LAKE SUPERIOR

STATION/POSITION TIME  TEMP    WIND        PRES    WAVE
                       AIR SEA DIR/SP/G            HT/PER
                 (UTC) (F)     (DEG/KT/KT) (MB)    (FT/S)
DEVILS ISLAND    2300   38     170/  7/  9  993.8F
SAXON HARBOR     2340   45     190/ 13/ 21  992.6F
$$

LMZ867-665-643>646-210100-
LAKE MICHIGAN

STATION/POSITION TIME  TEMP    WIND        PRES    WAVE
                       AIR SEA DIR/SP/G            HT/PER
                 (UTC) (F)     (DEG/KT/KT) (MB)    (FT/S)
N MID LAKE BUOY  2250   46 48  190/ 27/ 35 1001.0F   9/ 7
NORTHPORT PIER   2340   45     160/  9/ 21 1000.0F
KEWAUNEE LAKESHO 2330   43     200/  9/ 12 1000.3F
SHEBOYGAN LAKESH 2300   44     180/ 15/ 16 1001.9F
PORT WASHINGTON  2340   51     220/ 10/ 18 1003.7S
MILWAUKEE LAKESH 2330   51     220/ 21/ 24   N/A
S MID LAKE BUOY  2250   50 49  210/ 27/ 33 1005.3F   6/ 6
KENOSHA   LAKESH 2300   51     200/ 16/ 24 1004.7
$$

TC  - TEMPERATURE IN CELSIUS
VSB - VISIBILITY IN STATUTE MILES
WCI - WIND CHILL INDEX
HX  - HEAT INDEX




USA.gov is the U.S. government's official web portal to all federal, state and local government web resources and services.